Stations météo

réclame
Mon MeteoGroup
Gijon, Espagne (8014): Température de l'air & dewpoint: 17.04.2018 04:00:00 - 23.04.2018 04:00:00 (CEST)Gijon, Espagne (8014): Vitesse du vent: 17.04.2018 04:00:00 - 23.04.2018 04:00:00 (CEST)Gijon, Espagne (8014): Direction du vent: 17.04.2018 04:00:00 - 23.04.2018 04:00:00 (CEST)Gijon, Espagne (8014): reduced air pressure: 17.04.2018 04:00:00 - 23.04.2018 04:00:00 (CEST)Gijon, Espagne (8014): visibility: 17.04.2018 04:00:00 - 23.04.2018 04:00:00 (CEST)
Date & Time tt [°C] td [°C] ff [km/h] ff [knt] dd ppp [hPa] vv [km]
23.04.2018 04:00:00 - - - - - - -
23.04.2018 03:00:00 - - - - - - -
23.04.2018 02:00:00 - - - - - - -
23.04.2018 01:00:00 - - - - - - -
23.04.2018 00:00:00 - - - - - - -
22.04.2018 23:00:00 - - - - - - -
22.04.2018 22:00:00 - - - - - - -
22.04.2018 21:00:00 - - - - - - -
22.04.2018 20:00:00 14,4 12,6 11 6 NNE 1017,5 8
22.04.2018 19:00:00 - - - - - - -
22.04.2018 18:00:00 - - - - - - -
22.04.2018 17:00:00 15,0 12,9 5 3 N 1016,7 8
22.04.2018 16:00:00 - - - - - - -
22.04.2018 15:00:00 - - - - - - -
22.04.2018 14:00:00 16,8 13,3 9 5 NNE 1016,4 9
22.04.2018 13:00:00 - - - - - - -
22.04.2018 12:00:00 - - - - - - -
22.04.2018 11:00:00 16,2 12,6 0 0 N 1016,4 20
22.04.2018 10:00:00 - - - - - - -
22.04.2018 09:00:00 - - - - - - -
22.04.2018 08:00:00 14,0 11,7 0 0 N 1015,8 11
22.04.2018 07:00:00 - - - - - - -
22.04.2018 06:00:00 - - - - - - -
22.04.2018 05:00:00 - - - - - - -
22.04.2018 04:00:00 - - - - - - -
22.04.2018 03:00:00 - - - - - - -
22.04.2018 02:00:00 - - - - - - -
22.04.2018 01:00:00 - - - - - - -
22.04.2018 00:00:00 - - - - - - -
21.04.2018 23:00:00 - - - - - - -
21.04.2018 22:00:00 - - - - - - -
21.04.2018 21:00:00 - - - - - - -
21.04.2018 20:00:00 15,6 13,4 5 3 NE 1014,6 5
21.04.2018 19:00:00 - - - - - - -
21.04.2018 18:00:00 - - - - - - -
21.04.2018 17:00:00 15,7 13,4 5 3 NE 1014,7 4,0
21.04.2018 16:00:00 - - - - - - -
21.04.2018 15:00:00 - - - - - - -
21.04.2018 14:00:00 15,2 13,1 5 3 NE 1015,4 8
21.04.2018 13:00:00 - - - - - - -
21.04.2018 12:00:00 - - - - - - -
21.04.2018 11:00:00 14,0 12,6 4 2 E 1015,9 0,4
21.04.2018 10:00:00 - - - - - - -
21.04.2018 09:00:00 - - - - - - -
21.04.2018 08:00:00 12,2 11,4 0 0 N 1016,1 0,8
21.04.2018 07:00:00 - - - - - - -
21.04.2018 06:00:00 - - - - - - -
21.04.2018 05:00:00 - - - - - - -
21.04.2018 04:00:00 - - - - - - -
21.04.2018 03:00:00 - - - - - - -
21.04.2018 02:00:00 - - - - - - -
21.04.2018 01:00:00 - - - - - - -
21.04.2018 00:00:00 - - - - - - -
20.04.2018 23:00:00 - - - - - - -
20.04.2018 22:00:00 - - - - - - -
20.04.2018 21:00:00 - - - - - - -
20.04.2018 20:00:00 15,2 12,7 9 5 ENE 1017,5 6
20.04.2018 19:00:00 - - - - - - -
20.04.2018 18:00:00 - - - - - - -
20.04.2018 17:00:00 16,2 11,8 11 6 ENE 1018,4 8
20.04.2018 16:00:00 - - - - - - -
20.04.2018 15:00:00 - - - - - - -
20.04.2018 14:00:00 16,2 11,8 9 5 NE 1019,8 9
20.04.2018 13:00:00 - - - - - - -
20.04.2018 12:00:00 - - - - - - -
20.04.2018 11:00:00 14,9 11,1 4 2 SW 1020,4 8
20.04.2018 10:00:00 - - - - - - -
20.04.2018 09:00:00 - - - - - - -
20.04.2018 08:00:00 14,2 11,5 5 3 SW 1020,5 9
20.04.2018 07:00:00 - - - - - - -
20.04.2018 06:00:00 - - - - - - -
20.04.2018 05:00:00 - - - - - - -
20.04.2018 04:00:00 - - - - - - -
20.04.2018 03:00:00 - - - - - - -
20.04.2018 02:00:00 - - - - - - -
20.04.2018 01:00:00 - - - - - - -
20.04.2018 00:00:00 - - - - - - -
19.04.2018 23:00:00 - - - - - - -
19.04.2018 22:00:00 - - - - - - -
19.04.2018 21:00:00 - - - - - - -
19.04.2018 20:00:00 16,6 12,6 5 3 ENE 1020,6 15
19.04.2018 19:00:00 - - - - - - -
19.04.2018 18:00:00 - - - - - - -
19.04.2018 17:00:00 17,3 12,8 9 5 NNE 1020,3 25
19.04.2018 16:00:00 - - - - - - -
19.04.2018 15:00:00 - - - - - - -
19.04.2018 14:00:00 17,2 11,2 9 5 NE 1020,5 30
19.04.2018 13:00:00 - - - - - - -
19.04.2018 12:00:00 - - - - - - -
19.04.2018 11:00:00 18,6 9,1 8 4 ENE 1021,4 30
19.04.2018 10:00:00 - - - - - - -
19.04.2018 09:00:00 - - - - - - -
19.04.2018 08:00:00 13,9 7,0 11 6 SW 1021,1 25
19.04.2018 07:00:00 - - - - - - -
19.04.2018 06:00:00 - - - - - - -
19.04.2018 05:00:00 - - - - - - -
19.04.2018 04:00:00 - - - - - - -
19.04.2018 03:00:00 - - - - - - -
19.04.2018 02:00:00 - - - - - - -
19.04.2018 01:00:00 - - - - - - -
19.04.2018 00:00:00 - - - - - - -
18.04.2018 23:00:00 - - - - - - -
18.04.2018 22:00:00 - - - - - - -
18.04.2018 21:00:00 - - - - - - -
18.04.2018 20:00:00 17,2 12,1 9 5 NW 1019,7 30
18.04.2018 19:00:00 - - - - - - -
18.04.2018 18:00:00 - - - - - - -
18.04.2018 17:00:00 18,4 11,9 5 3 E 1019,8 30
18.04.2018 16:00:00 - - - - - - -
18.04.2018 15:00:00 - - - - - - -
18.04.2018 14:00:00 16,6 9,8 11 6 NE 1020,7 20
18.04.2018 13:00:00 - - - - - - -
18.04.2018 12:00:00 - - - - - - -
18.04.2018 11:00:00 17,2 9,6 8 4 NE 1020,6 20
18.04.2018 10:00:00 - - - - - - -
18.04.2018 09:00:00 - - - - - - -
18.04.2018 08:00:00 12,6 9,1 0 0 N 1020,9 25
18.04.2018 07:00:00 - - - - - - -
18.04.2018 06:00:00 - - - - - - -
18.04.2018 05:00:00 - - - - - - -
18.04.2018 04:00:00 - - - - - - -
18.04.2018 03:00:00 - - - - - - -
18.04.2018 02:00:00 - - - - - - -
18.04.2018 01:00:00 - - - - - - -
18.04.2018 00:00:00 - - - - - - -
17.04.2018 23:00:00 - - - - - - -
17.04.2018 22:00:00 - - - - - - -
17.04.2018 21:00:00 - - - - - - -
17.04.2018 20:00:00 15,6 12,7 8 4 ENE 1022,0 30
17.04.2018 19:00:00 - - - - - - -
17.04.2018 18:00:00 - - - - - - -
17.04.2018 17:00:00 17,8 8,9 11 6 NE 1021,7 40
17.04.2018 16:00:00 - - - - - - -
17.04.2018 15:00:00 - - - - - - -
17.04.2018 14:00:00 17,8 9,4 9 5 NE 1021,5 40
17.04.2018 13:00:00 - - - - - - -
17.04.2018 12:00:00 - - - - - - -
17.04.2018 11:00:00 17,4 8,5 4 2 ESE 1021,4 30
17.04.2018 10:00:00 - - - - - - -
17.04.2018 09:00:00 - - - - - - -
17.04.2018 08:00:00 10,4 8,8 0 0 N 1019,9 25
17.04.2018 07:00:00 - - - - - - -
17.04.2018 06:00:00 - - - - - - -
17.04.2018 05:00:00 - - - - - - -
17.04.2018 04:00:00 - - - - - - -

tt = Température de l'air
td = dewpoint
ff = Vitesse du vent
dd = Direction du vent
ppp = reduced air pressure
vv = visibility

stations d'obs. à proximité